Madison, MN

2:33 AM CST on February 26, 2017 (GMT -0600)
Madison-Lac Qui Parle County

Weather History for KDXX - August, 2013

Change the Weather History Date:

Monday, August 19, 2013

  Actual Average (KAQP) Record (KAQP)
Temperature  
Mean Temperature 78 °F -  
Max Temperature 87 °F 77 °F 96 °F (1998)
Min Temperature 68 °F 55 °F 37 °F (2004)
Cooling Degree Days 12    
Growing Degree Days 28 (Base 50)    
Moisture  
Dew Point 68 °F    
Average Humidity 73    
Maximum Humidity 94    
Minimum Humidity 58    
Precipitation  
Precipitation 0.00 in - - ()
Sea Level Pressure  
Sea Level Pressure 29.90 in    
Wind  
Wind Speed 5 mph (South)    
Max Wind Speed 9 mph    
Max Gust Speed -    
Visibility 10 miles    
Events      
Averages and records for this station are not official NWS values.
T = Trace of Precipitation, MM = Missing Value Source: NWS Daily Summary

Daily Weather History Graph

Daily Weather History Graph

Search for Another Location

Airport or City:

Trip Planner

Search our weather history database for the weather conditions in past years. The results will help you decide how hot, cold, wet, or windy it might be!

Date:

Astronomy

Aug. 19, 2013 Rise Set
Actual Time 6:31 AM CDT 8:24 PM CDT
Civil Twilight 6:00 AM CDT 8:55 PM CDT
Nautical Twilight 5:21 AM CDT 9:33 PM CDT
Astronomical Twilight 4:39 AM CDT 10:15 PM CDT
Moon 7:15 PM CDT (8/19) 4:50 AM CDT (8/19)
Length of Visible Light 14h 55m
Length of Day
13h 52m
Waxing Gibbous, 97% of the Moon is Illuminated
Aug 19
Waxing Gibbous
Aug 20
Full
Aug 28
Last Quarter
Sep 5
New
Sep 12
First Quarter

Hourly Weather History & Observations

Time (CDT) Temp. Heat Index Dew Point Humidity Pressure Visibility Wind Dir Wind Speed Gust Speed Precip Events Conditions
12:14 AM 68.0 °F - 62.6 °F 83% 29.98 in 10.0 mi SSE 4.6 mph - N/A   Clear
12:33 AM 68.0 °F - 62.6 °F 83% 29.97 in 10.0 mi SSE 5.8 mph - N/A   Clear
12:54 AM 68.0 °F - 62.6 °F 83% 29.98 in 10.0 mi SE 3.5 mph - N/A   Clear
1:13 AM 68.0 °F - 62.6 °F 83% 29.99 in 10.0 mi SSE 4.6 mph - N/A   Scattered Clouds
1:34 AM 69.8 °F - 62.6 °F 78% 29.98 in 10.0 mi SSE 4.6 mph - N/A   Scattered Clouds
1:54 AM 69.8 °F - 62.6 °F 78% 29.98 in 10.0 mi SSE 4.6 mph - N/A   Scattered Clouds
2:13 AM 68.0 °F - 64.4 °F 88% 29.98 in 10.0 mi SSE 4.6 mph - N/A   Clear
2:34 AM 68.0 °F - 64.4 °F 88% 29.98 in 10.0 mi Calm Calm - N/A   Clear
2:54 AM 69.8 °F - 64.4 °F 83% 29.97 in 10.0 mi South 4.6 mph - N/A   Clear
3:13 AM 71.6 °F - 64.4 °F 78% 29.95 in 10.0 mi South 5.8 mph - N/A   Clear
3:34 AM 71.6 °F - 64.4 °F 78% 29.93 in 10.0 mi South 5.8 mph - N/A   Clear
3:54 AM 71.6 °F - 64.4 °F 78% 29.93 in 10.0 mi SW 4.6 mph - N/A   Clear
4:13 AM 71.6 °F - 64.4 °F 78% 29.93 in 10.0 mi South 5.8 mph - N/A   Clear
4:34 AM 71.6 °F - 64.4 °F 78% 29.92 in 10.0 mi South 5.8 mph - N/A   Clear
4:54 AM 71.6 °F - 62.6 °F 73% 29.92 in 10.0 mi SW 5.8 mph - N/A   Clear
5:13 AM 71.6 °F - 64.4 °F 78% 29.92 in 10.0 mi SSW 4.6 mph - N/A   Scattered Clouds
5:34 AM 71.6 °F - 62.6 °F 73% 29.92 in 10.0 mi Calm Calm - N/A   Clear
5:53 AM 71.6 °F - 62.6 °F 73% 29.92 in 10.0 mi SSW 4.6 mph - N/A   Clear
6:13 AM 69.8 °F - 62.6 °F 78% 29.92 in 10.0 mi SSW 4.6 mph - N/A   Clear
6:34 AM 69.8 °F - 62.6 °F 78% 29.92 in 10.0 mi SSW 5.8 mph - N/A   Clear
6:53 AM 69.8 °F - 62.6 °F 78% 29.92 in 10.0 mi South 5.8 mph - N/A   Clear
7:13 AM 69.8 °F - 62.6 °F 78% 29.92 in 10.0 mi South 5.8 mph - N/A   Clear
7:34 AM 69.8 °F - 62.6 °F 78% 29.92 in 10.0 mi South 4.6 mph - N/A   Clear
7:53 AM 69.8 °F - 62.6 °F 78% 29.92 in 10.0 mi South 4.6 mph - N/A   Clear
8:13 AM 71.6 °F - 64.4 °F 78% 29.92 in 10.0 mi South 3.5 mph - N/A   Clear
8:34 AM 73.4 °F - 64.4 °F 73% 29.92 in 10.0 mi South 6.9 mph - N/A   Clear
8:53 AM 73.4 °F - 64.4 °F 73% 29.92 in 10.0 mi SSW 6.9 mph - N/A   Clear
9:13 AM 75.2 °F - 64.4 °F 69% 29.92 in 10.0 mi SSW 8.1 mph - N/A   Clear
9:34 AM 77.0 °F - 66.2 °F 69% 29.92 in 10.0 mi SW 8.1 mph - N/A   Clear
9:53 AM 78.8 °F - 66.2 °F 65% 29.92 in 10.0 mi SW 6.9 mph - N/A   Clear
10:13 AM 78.8 °F - 66.2 °F 65% 29.92 in 10.0 mi SW 8.1 mph - N/A   Clear
10:34 AM 78.8 °F - 66.2 °F 65% 29.92 in 10.0 mi SW 6.9 mph - N/A   Clear
10:53 AM 80.6 °F 82.7 °F 66.2 °F 61% 29.92 in 10.0 mi WSW 4.6 mph - N/A   Clear
11:14 AM 80.6 °F 83.2 °F 68.0 °F 65% 29.92 in 10.0 mi South 6.9 mph - N/A   Clear
11:34 AM 80.6 °F 83.2 °F 68.0 °F 65% 29.92 in 10.0 mi SW 8.1 mph - N/A   Clear
11:53 AM 82.4 °F 85.4 °F 68.0 °F 62% 29.92 in 10.0 mi South 3.5 mph - N/A   Clear
12:14 PM 82.4 °F 86.3 °F 69.8 °F 66% 29.91 in 10.0 mi South 3.5 mph - N/A   Clear
12:34 PM 84.2 °F 88.4 °F 69.8 °F 62% 29.90 in 10.0 mi South 6.9 mph - N/A   Clear
12:53 PM 84.2 °F 88.4 °F 69.8 °F 62% 29.90 in 10.0 mi South 6.9 mph - N/A   Clear
1:14 PM 84.2 °F 88.4 °F 69.8 °F 62% 29.90 in 10.0 mi SSE 8.1 mph - N/A   Clear
1:33 PM 84.2 °F 88.4 °F 69.8 °F 62% 29.89 in 10.0 mi South 8.1 mph - N/A   Clear
1:54 PM 84.2 °F 89.6 °F 71.6 °F 66% 29.89 in 10.0 mi South 8.1 mph - N/A   Clear
2:14 PM 84.2 °F 88.4 °F 69.8 °F 62% 29.89 in 10.0 mi SSE 6.9 mph - N/A   Clear
2:33 PM 84.2 °F 88.4 °F 69.8 °F 62% 29.89 in 10.0 mi South 9.2 mph - N/A   Clear
2:54 PM 86.0 °F 91.8 °F 71.6 °F 62% 29.89 in 10.0 mi South 6.9 mph - N/A   Clear
3:14 PM 87.8 °F 93.8 °F 71.6 °F 58% 29.88 in 10.0 mi South 5.8 mph - N/A   Clear
3:33 PM 87.8 °F 93.8 °F 71.6 °F 58% 29.88 in 10.0 mi South 6.9 mph - N/A   Clear
3:54 PM 87.8 °F 93.8 °F 71.6 °F 58% 29.87 in 10.0 mi SSE 8.1 mph - N/A   Clear
4:14 PM 87.8 °F 93.8 °F 71.6 °F 58% 29.87 in 10.0 mi SW 5.8 mph - N/A   Clear
4:33 PM 87.8 °F 93.8 °F 71.6 °F 58% 29.87 in 10.0 mi SSW 5.8 mph - N/A   Clear
4:54 PM 86.0 °F 91.8 °F 71.6 °F 62% 29.86 in 10.0 mi South 5.8 mph - N/A   Clear
5:13 PM 87.8 °F 93.8 °F 71.6 °F 58% 29.86 in 10.0 mi SSW 6.9 mph - N/A   Clear
5:33 PM 87.8 °F 93.8 °F 71.6 °F 58% 29.86 in 10.0 mi SSW 4.6 mph - N/A   Clear
5:53 PM 87.8 °F 93.8 °F 71.6 °F 58% 29.85 in 10.0 mi South 5.8 mph - N/A   Clear
6:12 PM 86.0 °F 91.8 °F 71.6 °F 62% 29.85 in 10.0 mi South 4.6 mph - N/A   Clear
6:34 PM 87.8 °F 95.6 °F 73.4 °F 62% 29.85 in 10.0 mi SSE 3.5 mph - N/A   Clear
6:50 PM 86.0 °F 93.4 °F 73.4 °F 66% 29.85 in 10.0 mi SSE 4.6 mph - N/A   Clear
7:13 PM 84.2 °F 90.9 °F 73.4 °F 70% 29.85 in 7.0 mi Calm Calm - N/A   Clear
7:33 PM 84.2 °F 90.9 °F 73.4 °F 70% 29.85 in 10.0 mi South 3.5 mph - N/A   Scattered Clouds
7:41 PM 82.4 °F 88.2 °F 73.4 °F 74% 29.84 in 10.0 mi South 4.6 mph - N/A   Clear
8:14 PM 80.6 °F 85.4 °F 73.4 °F 79% 29.85 in 10.0 mi South 3.5 mph - N/A   Clear
8:33 PM 78.8 °F - 73.4 °F 83% 29.85 in 10.0 mi South 4.6 mph - N/A   Clear
8:50 PM 78.8 °F - 73.4 °F 83% 29.85 in 10.0 mi South 3.5 mph - N/A   Clear
9:13 PM 77.0 °F - 71.6 °F 83% 29.86 in 10.0 mi South 3.5 mph - N/A   Clear
9:33 PM 75.2 °F - 71.6 °F 89% 29.86 in 7.0 mi SSE 5.8 mph - N/A   Clear
9:54 PM 75.2 °F - 71.6 °F 89% 29.87 in 7.0 mi South 3.5 mph - N/A   Clear
10:13 PM 75.2 °F - 71.6 °F 89% 29.87 in 5.0 mi South 4.6 mph - N/A   Clear
10:33 PM 73.4 °F - 71.6 °F 94% 29.87 in 7.0 mi South 4.6 mph - N/A   Clear
10:54 PM 73.4 °F - 71.6 °F 94% 29.87 in 7.0 mi South 5.8 mph - N/A   Clear
11:13 PM 73.4 °F - 69.8 °F 88% 29.87 in 5.0 mi South 4.6 mph - N/A   Clear
11:34 PM 73.4 °F - 69.8 °F 88% 29.86 in 5.0 mi SSW 4.6 mph - N/A   Clear
11:54 PM 73.4 °F - 69.8 °F 88% 29.86 in 4.0 mi South 4.6 mph - N/A   Clear